Weather History for Greenville, TX

Change the Weather History Date:

Friday, March 21, 2014

  Actual Average Record
Temperature  
Mean Temperature 60 °F -  
Max Temperature 78 °F 65 °F 80 °F (2011)
Min Temperature 42 °F 50 °F 37 °F (2006)
Degree Days  
Heating Degree Days 5    
Growing Degree Days 10 (Base 50)    
Moisture  
Dew Point 46 °F    
Average Humidity 57    
Maximum Humidity 82    
Minimum Humidity 34    
Precipitation  
Precipitation 0.00 in - - ()
Sea Level Pressure  
Sea Level Pressure 29.92 in    
Wind  
Wind Speed 6 mph (South)    
Max Wind Speed 23 mph    
Max Gust Speed 29 mph    
Visibility 10 miles    
Events      
Averages and records for this station are not official NWS values.
T = Trace of Precipitation, MM = Missing Value Source: NWS Daily Summary

Daily Weather History Graph

Daily Weather History Graph

Search for Another Location

Airport:

Trip Planner

Search our weather history database for the weather conditions in past years. The results will help you decide how hot, cold, wet, or windy it might be!

Date:

Astronomy

Mar. 21, 2014 Rise Set
Actual Time 7:26 AM CDT 7:36 PM CDT
Civil Twilight 7:01 AM CDT 8:01 PM CDT
Nautical Twilight 6:33 AM CDT 8:30 PM CDT
Astronomical Twilight 6:04 AM CDT 8:59 PM CDT
Moon No Moon Rise 10:33 AM CDT (3/21)
Length of Visible Light 12h 59m
Length of Day
12h 10m
Waning Gibbous, 75% of the Moon is Illuminated
Mar 21
Waning Gibbous
Mar 23
Last Quarter
Mar 30
New
Apr 7
First Quarter
Apr 15
Full

Hourly Weather History & Observations

Time (CDT) Temp. Windchill Dew Point Humidity Pressure Visibility Wind Dir Wind Speed Gust Speed Precip Events Conditions
12:15 AM 46.4 °F - 33.8 °F 62% 30.03 in 10.0 mi Calm Calm - N/A   Clear
12:35 AM 46.4 °F - 37.4 °F 71% 30.02 in 10.0 mi Calm Calm - N/A   Clear
12:55 AM 44.6 °F - 35.6 °F 71% 30.02 in 10.0 mi Calm Calm - N/A   Clear
1:15 AM 42.8 °F - 35.6 °F 76% 30.02 in 10.0 mi Calm Calm - N/A   Clear
1:35 AM 42.8 °F - 35.6 °F 76% 30.01 in 10.0 mi Calm Calm - N/A   Clear
1:55 AM 42.8 °F - 35.6 °F 76% 30.00 in 10.0 mi Calm Calm - N/A   Clear
2:15 AM 48.2 °F - 32.0 °F 54% 30.01 in 10.0 mi Calm Calm - N/A   Clear
2:35 AM 44.6 °F - 32.0 °F 61% 30.00 in 10.0 mi Calm Calm - N/A   Clear
2:55 AM 46.4 °F - 32.0 °F 57% 30.00 in 10.0 mi Calm Calm - N/A   Clear
3:15 AM 46.4 °F - 32.0 °F 57% 29.99 in 10.0 mi Calm Calm - N/A   Clear
3:35 AM 44.6 °F 43.1 °F 33.8 °F 66% 29.97 in 10.0 mi SE 3.5 mph - N/A   Clear
3:55 AM 46.4 °F 45.2 °F 33.8 °F 62% 29.97 in 10.0 mi SE 3.5 mph - N/A   Clear
4:15 AM 44.6 °F - 33.8 °F 66% 29.96 in 10.0 mi Calm Calm - N/A   Clear
4:35 AM 46.4 °F - 33.8 °F 62% 29.95 in 10.0 mi Calm Calm - N/A   Clear
4:55 AM 46.4 °F 45.2 °F 33.8 °F 62% 29.95 in 10.0 mi SSE 3.5 mph - N/A   Clear
5:15 AM 46.4 °F 45.2 °F 35.6 °F 66% 29.95 in 10.0 mi SSE 3.5 mph - N/A   Clear
5:35 AM 46.4 °F 45.2 °F 33.8 °F 62% 29.94 in 10.0 mi SSE 3.5 mph - N/A   Clear
5:55 AM 46.4 °F 45.2 °F 35.6 °F 66% 29.94 in 10.0 mi SSE 3.5 mph - N/A   Clear
6:15 AM 46.4 °F 45.2 °F 37.4 °F 71% 29.95 in 10.0 mi SSE 3.5 mph - N/A   Clear
6:35 AM 46.4 °F 44.3 °F 37.4 °F 71% 29.95 in 10.0 mi SE 4.6 mph - N/A   Clear
6:55 AM 46.4 °F 44.3 °F 37.4 °F 71% 29.95 in 10.0 mi SSE 4.6 mph - N/A   Clear
7:15 AM 46.4 °F 44.3 °F 37.4 °F 71% 29.96 in 10.0 mi SSE 4.6 mph - N/A   Clear
7:35 AM 46.4 °F 44.3 °F 41.0 °F 81% 29.96 in 10.0 mi SSE 4.6 mph - N/A   Clear
7:55 AM 48.2 °F - 42.8 °F 82% 29.96 in 10.0 mi South 5.8 mph - N/A   Clear
8:15 AM 51.8 °F - 42.8 °F 71% 29.96 in 10.0 mi SSE 5.8 mph - N/A   Clear
8:35 AM 53.6 °F - 44.6 °F 72% 29.96 in 10.0 mi SSE 6.9 mph - N/A   Clear
8:55 AM 53.6 °F - 46.4 °F 77% 29.95 in 10.0 mi SSE 8.1 mph - N/A   Clear
9:15 AM 55.4 °F - 46.4 °F 72% 29.96 in 10.0 mi SSE 8.1 mph - N/A   Clear
9:35 AM 59.0 °F - 46.4 °F 63% 29.95 in 10.0 mi South 10.4 mph - N/A   Clear
9:55 AM 60.8 °F - 46.4 °F 59% 29.96 in 10.0 mi South 10.4 mph - N/A   Clear
10:15 AM 62.6 °F - 46.4 °F 55% 29.96 in 10.0 mi South 11.5 mph - N/A   Clear
10:35 AM 64.4 °F - 46.4 °F 52% 29.95 in 10.0 mi South 16.1 mph - N/A   Clear
10:55 AM 68.0 °F - 46.4 °F 46% 29.95 in 10.0 mi South 16.1 mph - N/A   Clear
11:15 AM 68.0 °F - 44.6 °F 43% 29.94 in 10.0 mi South 16.1 mph - N/A   Clear
11:35 AM 69.8 °F - 44.6 °F 40% 29.94 in 10.0 mi South 13.8 mph 18.4 mph N/A   Clear
11:55 AM 71.6 °F - 44.6 °F 38% 29.94 in 10.0 mi South 13.8 mph 19.6 mph N/A   Clear
12:15 PM 73.4 °F - 44.6 °F 36% 29.92 in 10.0 mi South 18.4 mph - N/A   Clear
12:35 PM 73.4 °F - 44.6 °F 36% 29.91 in 10.0 mi South 15.0 mph 23.0 mph N/A   Clear
12:55 PM 75.2 °F - 46.4 °F 36% 29.91 in 10.0 mi South 19.6 mph 24.2 mph N/A   Clear
1:15 PM 77.0 °F - 46.4 °F 34% 29.89 in 10.0 mi South 18.4 mph 25.3 mph N/A   Clear
1:35 PM 77.0 °F - 46.4 °F 34% 29.89 in 10.0 mi South 20.7 mph 24.2 mph N/A   Clear
1:55 PM 77.0 °F - 48.2 °F 36% 29.89 in 10.0 mi SSW 21.9 mph 27.6 mph N/A   Clear
2:15 PM 77.0 °F - 50.0 °F 39% 29.87 in 10.0 mi South 20.7 mph 28.8 mph N/A   Clear
2:35 PM 77.0 °F - 50.0 °F 39% 29.86 in 10.0 mi SSW 20.7 mph 28.8 mph N/A   Clear
2:55 PM 78.8 °F - 50.0 °F 36% 29.85 in 10.0 mi SSW 19.6 mph 26.5 mph N/A   Clear
3:15 PM 78.8 °F - 50.0 °F 36% 29.84 in 10.0 mi South 23.0 mph 27.6 mph N/A   Clear
3:35 PM 78.8 °F - 50.0 °F 36% 29.84 in 10.0 mi SSW 18.4 mph 26.5 mph N/A   Clear
3:55 PM 78.8 °F - 51.8 °F 39% 29.83 in 10.0 mi SSW 19.6 mph 25.3 mph N/A   Scattered Clouds
4:15 PM 78.8 °F - 51.8 °F 39% 29.83 in 10.0 mi SW 20.7 mph 26.5 mph N/A   Scattered Clouds
4:35 PM 77.0 °F - 51.8 °F 41% 29.83 in 10.0 mi SSW 20.7 mph 28.8 mph N/A   Scattered Clouds
4:55 PM 78.8 °F - 51.8 °F 39% 29.83 in 10.0 mi SSW 16.1 mph 26.5 mph N/A   Scattered Clouds
5:15 PM 77.0 °F - 53.6 °F 44% 29.83 in 10.0 mi South 15.0 mph 24.2 mph N/A   Scattered Clouds
5:35 PM 77.0 °F - 53.6 °F 44% 29.84 in 10.0 mi SSW 15.0 mph 23.0 mph N/A   Scattered Clouds
5:55 PM 77.0 °F - 53.6 °F 44% 29.83 in 10.0 mi South 17.3 mph - N/A   Scattered Clouds
6:15 PM 73.4 °F - 53.6 °F 50% 29.83 in 10.0 mi South 12.7 mph 17.3 mph N/A   Mostly Cloudy
6:35 PM 73.4 °F - 53.6 °F 50% 29.84 in 10.0 mi South 9.2 mph - N/A   Overcast
6:55 PM 73.4 °F - 53.6 °F 50% 29.84 in 10.0 mi South 11.5 mph - N/A   Mostly Cloudy
7:15 PM 73.4 °F - 53.6 °F 50% 29.84 in 10.0 mi South 9.2 mph - N/A   Scattered Clouds
7:35 PM 71.6 °F - 53.6 °F 53% 29.85 in 10.0 mi South 5.8 mph - N/A   Scattered Clouds
7:55 PM 71.6 °F - 55.4 °F 57% 29.86 in 10.0 mi South 8.1 mph - N/A   Mostly Cloudy
8:15 PM 69.8 °F - 55.4 °F 60% 29.86 in 10.0 mi South 6.9 mph - N/A   Mostly Cloudy
8:35 PM 68.0 °F - 55.4 °F 64% 29.87 in 10.0 mi SSE 5.8 mph - N/A   Scattered Clouds
8:55 PM 69.8 °F - 55.4 °F 60% 29.88 in 10.0 mi SSE 9.2 mph - N/A   Mostly Cloudy
9:15 PM 69.8 °F - 55.4 °F 60% 29.89 in 10.0 mi South 8.1 mph - N/A   Overcast
9:35 PM 68.0 °F - 55.4 °F 64% 29.90 in 10.0 mi South 8.1 mph - N/A   Mostly Cloudy
9:55 PM 68.0 °F - 55.4 °F 64% 29.90 in 10.0 mi SSE 6.9 mph - N/A   Mostly Cloudy
10:15 PM 64.4 °F - 55.4 °F 73% 29.90 in 10.0 mi SSE 6.9 mph - N/A   Scattered Clouds
10:35 PM 62.6 °F - 55.4 °F 77% 29.90 in 10.0 mi SSE 4.6 mph - N/A   Clear
10:55 PM 62.6 °F - 55.4 °F 77% 29.91 in 10.0 mi SSE 5.8 mph - N/A   Clear
11:15 PM 62.6 °F - 55.4 °F 77% 29.91 in 10.0 mi SSE 4.6 mph - N/A   Clear
11:35 PM 62.6 °F - 55.4 °F 77% 29.91 in 10.0 mi SSE 5.8 mph - N/A   Clear
11:55 PM 62.6 °F - 55.4 °F 77% 29.91 in 10.0 mi South 6.9 mph - N/A   Clear